| time (UTC) | temp F | wind direction | speed knots | gust knots | rain 1hr in | rain 24hr in | rain mn in | humidity % | barometer mb |
| 20260505032235 | 80 | 191 | 2.6 | 4.3 | 0.00 | 0.00 | 0.00 | 29 | 1018.3 |
| 20260505031234 | 78 | 126 | 1.7 | 4.3 | 0.00 | 0.00 | 0.00 | 29 | 1018.3 |
| 20260505030235 | 78 | 175 | 5.2 | 7.0 | 0.00 | 0.00 | 0.00 | 29 | 1018.1 |
| 20260505025236 | 77 | 200 | 1.7 | 0.9 | 0.00 | 0.00 | 0.00 | 29 | 1018.2 |
| 20260505024236 | 75 | 197 | 2.6 | 2.6 | 0.00 | 0.00 | 0.00 | 29 | 1018.2 |
| 20260505023235 | 78 | 118 | 2.6 | 2.6 | 0.00 | 0.00 | 0.00 | 29 | 1018.0 |
| 20260505022235 | 76 | 100 | 2.6 | 2.6 | 0.00 | 0.00 | 0.00 | 29 | 1018.1 |
| 20260505021235 | 76 | 209 | 2.6 | 2.6 | 0.00 | 0.00 | 0.00 | 29 | 1018.1 |
| 20260505020234 | 76 | 206 | 1.7 | 4.3 | 0.00 | 0.00 | 0.00 | 29 | 1018.1 |
| 20260505015235 | 77 | 104 | 2.6 | 5.2 | 0.00 | 0.00 | 0.00 | 29 | 1018.1 |
| 20260505014235 | 75 | 331 | 1.7 | 2.6 | 0.00 | 0.00 | 0.00 | 29 | 1018.1 |
| 20260505013236 | 75 | 123 | 0.9 | 1.7 | 0.00 | 0.00 | 0.00 | 29 | 1018.3 |
| 20260505012235 | 74 | 210 | 2.6 | 2.6 | 0.00 | 0.00 | 0.00 | 29 | 1017.9 |
| 20260505011234 | 75 | 203 | 2.6 | 4.3 | 0.00 | 0.00 | 0.00 | 29 | 1017.9 |
| 20260505010235 | 74 | 342 | 0.9 | 1.7 | 0.00 | 0.00 | 0.00 | 29 | 1018.3 |
| 20260505005234 | 73 | 206 | 2.6 | 2.6 | 0.00 | 0.00 | 0.00 | 29 | 1018.1 |
| 20260505004234 | 72 | 173 | 1.7 | 2.6 | 0.00 | 0.00 | 0.00 | 29 | 1018.1 |
| 20260505003235 | 71 | 223 | 4.3 | 5.2 | 0.00 | 0.00 | 0.00 | 29 | 1018.3 |
| 20260505002235 | 70 | 180 | 2.6 | 6.1 | 0.00 | 0.00 | 0.00 | 29 | 1018.4 |
| 20260505001234 | 69 | 190 | 2.6 | 2.6 | 0.00 | 0.00 | 0.00 | 29 | 1018.3 |
| 20260505000235 | 69 | 224 | 4.3 | 4.3 | 0.00 | 0.00 | 0.00 | 29 | 1018.3 |
| 20260504235234 | 69 | 173 | 4.3 | 2.6 | 0.00 | 0.00 | 0.00 | 29 | 1018.6 |
| 20260504234234 | 68 | 189 | 1.7 | 2.6 | 0.00 | 0.00 | 0.00 | 29 | 1018.6 |
| 20260504233234 | 67 | 170 | 2.6 | 2.6 | 0.00 | 0.00 | 0.00 | 29 | 1018.8 |
| 20260504232234 | 67 | 239 | 1.7 | 2.6 | 0.00 | 0.00 | 0.00 | 29 | 1018.9 |
| 20260504231234 | 65 | 172 | 2.6 | 4.3 | 0.00 | 0.00 | 0.00 | 29 | 1018.9 |
| 20260504230234 | 65 | 174 | 2.6 | 5.2 | 0.00 | 0.00 | 0.00 | 29 | 1019.0 |
| 20260504225235 | 64 | 166 | 1.7 | 2.6 | 0.00 | 0.00 | 0.00 | 29 | 1019.2 |
| 20260504224235 | 64 | 195 | 1.7 | 4.3 | 0.00 | 0.00 | 0.00 | 29 | 1019.2 |
| 20260504223233 | 64 | 56 | 0.9 | 1.7 | 0.00 | 0.00 | 0.00 | 29 | 1019.4 |
| 20260504222235 | 62 | 112 | 0.9 | 1.7 | 0.00 | 0.00 | 0.00 | 25 | 1019.7 |
| 20260504221234 | 60 | 199 | 1.7 | 2.6 | 0.00 | 0.00 | 0.00 | 27 | 1019.7 |
| 20260504220235 | 59 | 231 | 1.7 | 2.6 | 0.00 | 0.00 | 0.00 | 30 | 1020.0 |
| 20260504215235 | 58 | 277 | 0.9 | 2.6 | 0.00 | 0.00 | 0.00 | 33 | 1020.0 |
| 20260504214235 | 57 | 204 | 1.7 | 2.6 | 0.00 | 0.00 | 0.00 | 36 | 1020.0 |
| 20260504213234 | 56 | 192 | 1.7 | 1.7 | 0.00 | 0.00 | 0.00 | 39 | 1020.5 |
| 20260504212234 | 56 | 236 | 2.6 | 2.6 | 0.00 | 0.00 | 0.00 | 43 | 1020.3 |
| 20260504211234 | 55 | 160 | 0.9 | 0.9 | 0.00 | 0.00 | 0.00 | 51 | 1020.3 |
| 20260504210235 | 53 | 166 | 0.0 | 0.0 | 0.00 | 0.00 | 0.00 | 55 | 1020.2 |
| 20260504205235 | 52 | 210 | 0.0 | 0.0 | 0.00 | 0.00 | 0.00 | 55 | 1020.1 |
| 20260504204235 | 51 | 262 | 0.0 | 0.0 | 0.00 | 0.00 | 0.00 | 54 | 1020.1 |
| 20260504203233 | 51 | 292 | 0.0 | 0.0 | 0.00 | 0.00 | 0.00 | 53 | 1019.8 |
| 20260504202234 | 52 | 321 | 0.0 | 0.0 | 0.00 | 0.00 | 0.00 | 53 | 1019.8 |
| 20260504201234 | 52 | 283 | 0.0 | 0.0 | 0.00 | 0.00 | 0.00 | 54 | 1019.8 |
| 20260504200235 | 52 | 243 | 0.0 | 0.0 | 0.00 | 0.00 | 0.00 | 52 | 1019.8 |
| 20260504195235 | 53 | 198 | 0.0 | 0.9 | 0.00 | 0.00 | 0.00 | 53 | 1019.7 |
| 20260504194235 | 53 | 75 | 0.0 | 0.9 | 0.00 | 0.00 | 0.00 | 54 | 1019.7 |
| 20260504193234 | 53 | 183 | 0.9 | 4.3 | 0.00 | 0.00 | 0.00 | 55 | 1019.3 |
| 20260504192233 | 53 | 222 | 0.0 | 0.9 | 0.00 | 0.00 | 0.00 | 56 | 1019.1 |
| 20260504191233 | 53 | 221 | 0.9 | 1.7 | 0.00 | 0.00 | 0.00 | 56 | 1019.1 |
| 20260504190234 | 53 | 200 | 0.9 | 1.7 | 0.00 | 0.00 | 0.00 | 56 | 1019.2 |
| 20260504185235 | 53 | 187 | 0.0 | 0.9 | 0.00 | 0.00 | 0.00 | 56 | 1019.0 |
| 20260504184233 | 53 | 205 | 0.9 | 0.9 | 0.00 | 0.00 | 0.00 | 56 | 1019.0 |
| 20260504183234 | 53 | 225 | 0.0 | 0.0 | 0.00 | 0.00 | 0.00 | 56 | 1018.7 |
| 20260504182235 | 53 | 234 | 0.9 | 1.7 | 0.00 | 0.00 | 0.00 | 55 | 1018.8 |
| 20260504181234 | 53 | 207 | 0.0 | 0.0 | 0.00 | 0.00 | 0.00 | 53 | 1018.6 |
| 20260504180235 | 53 | 202 | 0.0 | 0.0 | 0.00 | 0.00 | 0.00 | 54 | 1018.6 |
| 20260504175234 | 53 | 212 | 1.7 | 1.7 | 0.00 | 0.00 | 0.00 | 56 | 1018.4 |
| 20260504174235 | 54 | 220 | 0.9 | 0.9 | 0.00 | 0.00 | 0.00 | 56 | 1018.4 |
| 20260504173234 | 53 | 186 | 0.0 | 0.9 | 0.00 | 0.00 | 0.00 | 53 | 1018.4 |
| 20260504172235 | 54 | 158 | 1.7 | 1.7 | 0.00 | 0.00 | 0.00 | 55 | 1018.1 |
| 20260504171234 | 53 | 158 | 0.0 | 0.0 | 0.00 | 0.00 | 0.00 | 52 | 1017.9 |
| 20260504170234 | 53 | 333 | 0.0 | 0.0 | 0.00 | 0.00 | 0.00 | 49 | 1017.9 |
| 20260504160235 | 54 | 112 | 0.0 | 0.0 | 0.00 | 0.00 | 0.00 | 45 | 1016.6 |
| 20260504150234 | 55 | 270 | 0.0 | 0.0 | 0.00 | 0.00 | 0.00 | 39 | 1016.9 |
| 20260504141234 | 56 | 322 | 0.0 | 0.0 | 0.00 | 0.00 | 0.00 | 36 | 1017.9 |
| 20260504140233 | 56 | 199 | 0.0 | 0.9 | 0.00 | 0.00 | 0.00 | 38 | 1018.3 |
| 20260504130234 | 58 | 188 | 0.0 | 0.9 | 0.00 | 0.00 | 0.00 | 31 | 1017.8 |
| 20260504120233 | 60 | 202 | 0.0 | 0.0 | 0.00 | 0.00 | 0.00 | 26 | 1017.0 |
| 20260504110234 | 61 | 175 | 0.9 | 1.7 | 0.00 | 0.00 | 0.00 | 25 | 1015.7 |
| 20260504100233 | 63 | 88 | 0.9 | 1.7 | 0.00 | 0.00 | 0.00 | 25 | 1015.3 |
| 20260504081234 | 66 | 242 | 1.7 | 5.2 | 0.00 | 0.00 | 0.00 | 25 | 1014.2 |
| 20260504080233 | 67 | 303 | 4.3 | 8.7 | 0.00 | 0.04 | 0.00 | 25 | 1014.0 |
| 20260504070234 | 69 | 318 | 5.2 | 4.3 | 0.00 | 0.04 | 0.00 | 25 | 1014.6 |
| 20260504060233 | 70 | 318 | 8.7 | 8.7 | 0.00 | 0.08 | 0.00 | 25 | 1014.5 |
| 20260504050233 | 74 | 338 | 6.1 | 7.8 | 0.00 | 0.33 | 0.00 | 25 | 1014.3 |
| 20260504045234 | 72 | 354 | 7.0 | 10.4 | 0.00 | 0.37 | 0.00 | 25 | 1014.1 |
| 20260504044233 | 73 | 335 | 7.0 | 12.2 | 0.00 | 0.41 | 0.00 | 25 | 1014.1 |
| 20260504043233 | 71 | 324 | 5.2 | 6.1 | 0.00 | 0.50 | 0.00 | 25 | 1013.8 |
| 20260504042234 | 72 | 338 | 5.2 | 12.2 | 0.00 | 0.54 | 0.00 | 25 | 1014.0 |
| 20260504041234 | 71 | 208 | 4.3 | 6.1 | 0.00 | 0.58 | 0.00 | 25 | 1014.0 |
| 20260504040234 | 70 | 338 | 4.3 | 7.8 | 0.00 | 0.58 | 0.00 | 25 | 1013.7 |
| 20260504035232 | 70 | 158 | 5.2 | 11.3 | 0.00 | 0.58 | 0.00 | 25 | 1013.9 |
| 20260504034234 | 72 | 187 | 2.6 | 2.6 | 0.00 | 0.58 | 0.00 | 25 | 1013.9 |
| 20260504033234 | 69 | 320 | 2.6 | 4.3 | 0.00 | 0.62 | 0.00 | 25 | 1013.4 |